GW5001 Weather Reports


time (UTC)temp
F
wind
direction
speed
knots
gust
knots
rain 1hr
in
rain 24hr
in
rain mn
in
humidity
%
barometer
mb
20260503005731 76 6 3.5 5.2 0.00 0.00 0.00 19 1012.0
20260503005232 76 314 2.6 4.3 0.00 0.00 0.00 18 1012.0
20260503004731 76 340 3.5 4.3 0.00 0.00 0.00 18 1012.0
20260503004232 77 327 4.3 7.0 0.00 0.00 0.00 19 1012.0
20260503003732 77 357 2.6 5.2 0.00 0.00 0.00 18 1012.0
20260503003231 77 358 2.6 3.5 0.00 0.00 0.00 19 1012.0
20260503002731 78 32 2.6 4.3 0.00 0.00 0.00 18 1012.0
20260503002231 77 328 0.9 1.7 0.00 0.00 0.00 22 1013.0
20260503001732 77 56 1.7 2.6 0.00 0.00 0.00 18 1012.0
20260503001232 77 76 0.9 1.7 0.00 0.00 0.00 19 1013.0
20260503000731 76 94 3.5 3.5 0.00 0.00 0.00 18 1013.0
20260503000233 77 112 1.7 5.2 0.00 0.00 0.00 19 1013.0
20260502235732 76 90 1.7 2.6 0.00 0.00 0.00 18 1013.0
20260502235232 77 26 1.7 3.5 0.00 0.00 0.00 19 1013.0
20260502234732 77 74 2.6 3.5 0.00 0.00 0.00 18 1013.0
20260502234231 78 19 5.2 7.0 0.00 0.00 0.00 18 1013.0
20260502233731 78 98 3.5 5.2 0.00 0.00 0.00 18 1013.0
20260502233232 78 270 1.7 2.6 0.00 0.00 0.00 19 1013.0
20260502232731 77 254 1.7 3.5 0.00 0.00 0.00 20 1013.0
20260502232232 77 112 5.2 7.0 0.00 0.00 0.00 18 1013.0
20260502231731 77 327 2.6 7.0 0.00 0.00 0.00 18 1013.0
20260502231231 78 48 1.7 5.2 0.00 0.00 0.00 19 1013.0
20260502230731 77 54 0.9 1.7 0.00 0.00 0.00 17 1013.0
20260502230231 77 128 1.7 6.1 0.00 0.00 0.00 18 1013.0
20260502225731 76 65 1.7 3.5 0.00 0.00 0.00 21 1013.0
20260502225231 76 77 5.2 7.8 0.00 0.00 0.00 17 1013.0
20260502224731 76 104 0.9 3.5 0.00 0.00 0.00 20 1013.0
20260502224231 76 81 3.5 6.1 0.00 0.00 0.00 18 1013.0
20260502223732 76 105 5.2 6.1 0.00 0.00 0.00 18 1013.0
20260502223231 77 174 1.7 3.5 0.00 0.00 0.00 20 1013.0
20260502222731 77 108 5.2 7.8 0.00 0.00 0.00 20 1013.0
20260502222232 77 81 5.2 7.8 0.00 0.00 0.00 19 1013.0
20260502221731 76 165 1.7 6.1 0.00 0.00 0.00 20 1014.0
20260502221232 76 99 6.1 8.7 0.00 0.00 0.00 20 1014.0
20260502220731 76 115 5.2 11.3 0.00 0.00 0.00 21 1014.0
20260502220231 77 117 4.3 7.8 0.00 0.00 0.00 20 1014.0
20260502215731 77 150 4.3 8.7 0.00 0.00 0.00 21 1014.0
20260502215231 77 155 3.5 7.0 0.00 0.00 0.00 22 1014.0
20260502214731 76 178 1.7 3.5 0.00 0.00 0.00 22 1014.0
20260502214231 76 203 3.5 3.5 0.00 0.00 0.00 21 1014.0
20260502213732 76 314 6.1 7.8 0.00 0.00 0.00 22 1014.0
20260502213232 77 314 3.5 5.2 0.00 0.00 0.00 22 1014.0
20260502212731 76 315 2.6 2.6 0.00 0.00 0.00 24 1014.0
20260502212231 76 313 4.3 5.2 0.00 0.00 0.00 23 1014.0
20260502211732 76 315 2.6 5.2 0.00 0.00 0.00 24 1014.0
20260502211233 75 315 2.6 4.3 0.00 0.00 0.00 22 1014.0
20260502210733 75 315 2.6 3.5 0.00 0.00 0.00 25 1015.0
20260502210232 75 314 2.6 3.5 0.00 0.00 0.00 24 1015.0
20260502205732 75 314 2.6 2.6 0.00 0.00 0.00 23 1015.0
20260502205232 75 314 2.6 3.5 0.00 0.00 0.00 22 1015.0
20260502204731 75 314 1.7 2.6 0.00 0.00 0.00 24 1015.0
20260502204231 76 314 5.2 7.8 0.00 0.00 0.00 21 1015.0
20260502203731 76 314 2.6 4.3 0.00 0.00 0.00 23 1015.0
20260502203231 75 314 3.5 7.0 0.00 0.00 0.00 26 1015.0
20260502202732 75 315 3.5 7.0 0.00 0.00 0.00 23 1015.0
20260502202232 75 315 4.3 5.2 0.00 0.00 0.00 22 1015.0
20260502201731 75 314 2.6 3.5 0.00 0.00 0.00 22 1015.0
20260502201232 75 315 3.5 4.3 0.00 0.00 0.00 22 1015.0
20260502200731 75 315 2.6 3.5 0.00 0.00 0.00 23 1015.0
20260502200232 75 315 3.5 5.2 0.00 0.00 0.00 22 1015.0
20260502195731 74 314 4.3 6.1 0.00 0.00 0.00 24 1015.0
20260502195232 74 314 5.2 6.1 0.00 0.00 0.00 24 1015.0
20260502194731 74 315 3.5 5.2 0.00 0.00 0.00 25 1015.0
20260502194231 74 312 2.6 4.3 0.00 0.00 0.00 24 1015.0
20260502193731 74 313 5.2 7.0 0.00 0.00 0.00 24 1015.0
20260502193231 74 315 2.6 5.2 0.00 0.00 0.00 25 1015.0
20260502192731 74 315 4.3 6.1 0.00 0.00 0.00 23 1016.0
20260502192232 73 314 4.3 6.1 0.00 0.00 0.00 24 1016.0
20260502191733 73 314 3.5 6.1 0.00 0.00 0.00 24 1016.0
20260502191231 73 315 1.7 1.7 0.00 0.00 0.00 34 1016.0
20260502190731 72 314 1.7 2.6 0.00 0.00 0.00 34 1016.0
20260502190232 71 312 1.7 3.5 0.00 0.00 0.00 35 1016.0
20260502185731 71 315 1.7 2.6 0.00 0.00 0.00 35 1016.0
20260502185231 70 314 2.6 2.6 0.00 0.00 0.00 35 1016.0
20260502184732 70 314 2.6 2.6 0.00 0.00 0.00 36 1016.0
20260502184232 71 314 2.6 3.5 0.00 0.00 0.00 35 1016.0
20260502183732 71 314 1.7 2.6 0.00 0.00 0.00 34 1016.0
20260502183232 69 311 1.7 2.6 0.00 0.00 0.00 37 1017.0
20260502182731 68 298 1.7 2.6 0.00 0.00 0.00 40 1017.0
20260502182232 68 309 2.6 5.2 0.00 0.00 0.00 37 1017.0
20260502181733 67 316 1.7 2.6 0.00 0.00 0.00 38 1017.0
20260502181232 67 281 2.6 3.5 0.00 0.00 0.00 39 1017.0
20260502180731 67 313 3.5 5.2 0.00 0.00 0.00 41 1017.0
20260502180232 66 305 3.5 4.3 0.00 0.00 0.00 42 1017.0
20260502170232 64 298 2.6 4.3 0.00 0.00 0.00 44 1017.0
20260502164231 62 359 1.7 2.6 0.00 0.00 0.00 46 1017.0
20260502163731 61 349 2.6 3.5 0.00 0.00 0.00 46 1017.0
20260502163232 62 306 3.5 4.3 0.00 0.00 0.00 46 1017.0
20260502162732 61 14 1.7 2.6 0.00 0.00 0.00 45 1017.0
20260502162231 60 340 2.6 5.2 0.00 0.00 0.00 48 1017.0
20260502161731 59 357 3.5 4.3 0.00 0.00 0.00 49 1017.0
20260502161231 59 296 4.3 6.1 0.00 0.00 0.00 51 1017.0
20260502160732 58 305 6.1 7.8 0.00 0.00 0.00 51 1017.0
20260502160232 58 303 5.2 7.0 0.00 0.00 0.00 51 1017.0
20260502152231 55 325 1.7 2.6 0.00 0.00 0.00 57 1017.0
20260502151731 55 326 1.7 2.6 0.00 0.00 0.00 57 1017.0
20260502151231 55 12 3.5 4.3 0.00 0.00 0.00 55 1017.0
20260502150731 55 356 3.5 4.3 0.00 0.00 0.00 54 1017.0
20260502150231 55 43 2.6 4.3 0.00 0.00 0.00 55 1017.0
20260502130731 53 113 7.8 11.3 0.00 0.00 0.00 51 1016.0
20260502130231 54 88 6.1 7.8 0.00 0.00 0.00 49 1016.0
20260502123731 53 90 6.1 7.8 0.00 0.00 0.00 46 1016.0
20260502123232 53 108 5.2 7.8 0.00 0.00 0.00 49 1016.0
20260502122731 53 115 6.1 8.7 0.00 0.00 0.00 51 1016.0
20260502122232 53 104 6.1 7.8 0.00 0.00 0.00 50 1016.0
20260502121731 53 108 6.1 7.8 0.00 0.00 0.00 51 1016.0
20260502121232 54 112 6.1 7.8 0.00 0.00 0.00 49 1016.0
20260502120732 54 110 7.0 9.6 0.00 0.00 0.00 49 1016.0
20260502120232 54 100 5.2 7.0 0.00 0.00 0.00 48 1016.0
20260502115732 54 101 4.3 5.2 0.00 0.00 0.00 47 1016.0
20260502115231 54 101 5.2 6.1 0.00 0.00 0.00 48 1016.0
20260502114732 54 89 5.2 7.0 0.00 0.00 0.00 48 1016.0
20260502114233 54 114 5.2 7.0 0.00 0.00 0.00 48 1016.0
20260502113731 54 115 5.2 7.0 0.00 0.00 0.00 49 1016.0
20260502113231 54 110 7.0 9.6 0.00 0.00 0.00 49 1017.0
20260502112732 53 107 7.0 10.4 0.00 0.00 0.00 49 1016.0
20260502112231 53 133 6.1 9.6 0.00 0.00 0.00 51 1016.0
20260502111732 54 128 4.3 5.2 0.00 0.00 0.00 48 1017.0
20260502111231 54 123 5.2 7.8 0.00 0.00 0.00 49 1017.0
20260502110731 54 120 5.2 8.7 0.00 0.00 0.00 48 1017.0
20260502110231 54 100 7.0 7.8 0.00 0.00 0.00 48 1017.0
20260502105732 54 118 5.2 7.8 0.00 0.00 0.00 49 1017.0
20260502105232 54 128 7.0 8.7 0.00 0.00 0.00 49 1017.0
20260502104731 54 124 6.1 8.7 0.00 0.00 0.00 48 1017.0
20260502104232 54 96 4.3 7.0 0.00 0.00 0.00 48 1017.0
20260502103731 54 99 4.3 6.1 0.00 0.00 0.00 49 1017.0
20260502103231 54 99 4.3 6.1 0.00 0.00 0.00 50 1017.0
20260502102731 54 113 5.2 7.0 0.00 0.00 0.00 49 1017.0
20260502102231 54 113 3.5 6.1 0.00 0.00 0.00 50 1017.0
20260502101731 54 98 5.2 7.8 0.00 0.00 0.00 50 1017.0
20260502101231 54 88 7.0 8.7 0.00 0.00 0.00 52 1017.0
20260502100732 54 100 5.2 7.0 0.00 0.00 0.00 50 1017.0
20260502100231 54 92 7.0 10.4 0.00 0.00 0.00 50 1017.0
20260502091232 55 105 6.1 7.8 0.00 0.00 0.00 50 1017.0
20260502090732 55 95 5.2 10.4 0.00 0.00 0.00 49 1017.0
20260502090231 55 111 7.0 9.6 0.00 0.00 0.00 48 1017.0
20260502071232 57 122 4.3 6.1 0.00 0.00 0.00 47 1017.0
20260502070731 57 119 5.2 7.0 0.00 0.00 0.00 46 1017.0
20260502070232 57 115 4.3 7.0 0.00 0.00 0.00 46 1017.0
20260502065731 57 117 5.2 8.7 0.00 0.00 0.00 45 1017.0
20260502065232 57 117 6.1 8.7 0.00 0.00 0.00 46 1017.0
20260502064732 58 130 5.2 7.8 0.00 0.00 0.00 45 1017.0
20260502064231 58 111 5.2 7.8 0.00 0.00 0.00 43 1017.0
20260502063732 58 114 4.3 6.1 0.00 0.00 0.00 44 1017.0
20260502063232 58 124 4.3 6.1 0.00 0.00 0.00 44 1017.0
20260502062731 57 107 5.2 8.7 0.00 0.00 0.00 44 1017.0
20260502062231 57 114 5.2 7.8 0.00 0.00 0.00 46 1017.0
20260502061731 57 116 5.2 7.8 0.00 0.00 0.00 46 1017.0
20260502061232 57 109 3.5 4.3 0.00 0.00 0.00 47 1017.0
20260502060731 58 112 5.2 7.8 0.00 0.00 0.00 45 1017.0
20260502060231 58 111 4.3 7.0 0.00 0.00 0.00 44 1017.0
20260502055731 58 101 5.2 7.0 0.00 0.00 0.00 44 1017.0
20260502055231 58 111 5.2 7.0 0.00 0.00 0.00 44 1017.0
20260502054734 58 93 5.2 7.0 0.00 0.00 0.00 42 1017.0
20260502054232 58 101 5.2 7.8 0.00 0.00 0.00 44 1017.0
20260502053732 58 116 4.3 6.1 0.00 0.00 0.00 43 1017.0
20260502053232 58 106 5.2 6.1 0.00 0.00 0.00 43 1017.0
20260502052732 58 111 3.5 5.2 0.00 0.00 0.00 43 1017.0
20260502052232 58 111 4.3 7.8 0.00 0.00 0.00 44 1017.0
20260502051731 58 96 4.3 7.0 0.00 0.00 0.00 43 1017.0
20260502051233 57 95 3.5 3.5 0.00 0.00 0.00 43 1017.0
20260502050732 56 116 3.5 6.1 0.00 0.00 0.00 48 1017.0
20260502050231 57 119 4.3 6.1 0.00 0.00 0.00 48 1017.0
20260502045731 57 120 3.5 5.2 0.00 0.00 0.00 46 1017.0
20260502045231 57 123 3.5 4.3 0.00 0.00 0.00 47 1017.0
20260502044731 57 132 3.5 4.3 0.00 0.00 0.00 46 1017.0
20260502044232 57 127 2.6 3.5 0.00 0.00 0.00 47 1017.0
20260502043731 57 126 4.3 6.1 0.00 0.00 0.00 47 1017.0
20260502043231 58 128 4.3 6.1 0.00 0.00 0.00 44 1017.0
20260502042731 59 127 3.5 3.5 0.00 0.00 0.00 43 1017.0
20260502042232 60 125 4.3 5.2 0.00 0.00 0.00 42 1017.0
20260502041731 60 113 2.6 3.5 0.00 0.00 0.00 39 1017.0
20260502041231 61 112 3.5 5.2 0.00 0.00 0.00 38 1017.0
20260502040731 61 89 2.6 3.5 0.00 0.00 0.00 37 1017.0
20260502040231 62 127 3.5 3.5 0.00 0.00 0.00 37 1017.0
20260502035731 62 108 3.5 3.5 0.00 0.00 0.00 36 1017.0
20260502035232 62 122 3.5 4.3 0.00 0.00 0.00 35 1017.0
20260502034731 62 116 1.7 2.6 0.00 0.00 0.00 35 1017.0
20260502034231 62 106 3.5 4.3 0.00 0.00 0.00 36 1017.0
20260502033731 62 124 3.5 5.2 0.00 0.00 0.00 36 1017.0
20260502033232 62 116 2.6 3.5 0.00 0.00 0.00 36 1017.0
20260502032731 62 117 2.6 4.3 0.00 0.00 0.00 37 1017.0
20260502032232 62 119 1.7 3.5 0.00 0.00 0.00 37 1017.0
20260502031731 63 124 2.6 5.2 0.00 0.00 0.00 39 1017.0
20260502031232 63 135 2.6 2.6 0.00 0.00 0.00 38 1017.0
20260502030734 64 137 1.7 2.6 0.00 0.00 0.00 37 1017.0
20260502030232 65 137 2.6 3.5 0.00 0.00 0.00 36 1017.0
20260502025732 67 136 0.9 0.9 0.00 0.00 0.00 30 1016.0
20260502025231 67 135 0.9 0.9 0.00 0.00 0.00 28 1016.0
20260502024733 68 135 0.9 0.9 0.00 0.00 0.00 26 1016.0
20260502024232 68 135 0.9 1.7 0.00 0.00 0.00 25 1016.0
20260502023731 69 136 0.9 1.7 0.00 0.00 0.00 24 1016.0
20260502023232 69 137 1.7 1.7 0.00 0.00 0.00 24 1016.0
20260502022731 69 136 1.7 2.6 0.00 0.00 0.00 23 1016.0
20260502022231 70 136 1.7 1.7 0.00 0.00 0.00 22 1016.0
20260502021732 70 137 1.7 2.6 0.00 0.00 0.00 22 1016.0
20260502021231 70 137 1.7 2.6 0.00 0.00 0.00 21 1016.0
20260502020732 71 136 1.7 1.7 0.00 0.00 0.00 20 1016.0
20260502020231 71 137 1.7 1.7 0.00 0.00 0.00 21 1016.0
20260502015731 71 137 1.7 1.7 0.00 0.00 0.00 21 1016.0
20260502015232 71 137 1.7 1.7 0.00 0.00 0.00 22 1016.0
20260502014732 71 136 2.6 6.1 0.00 0.00 0.00 21 1016.0
20260502014231 71 136 0.9 1.7 0.00 0.00 0.00 23 1016.0
20260502013731 71 136 1.7 2.6 0.00 0.00 0.00 22 1016.0
20260502013232 71 137 1.7 2.6 0.00 0.00 0.00 21 1016.0
20260502012731 72 136 1.7 2.6 0.00 0.00 0.00 19 1016.0
20260502012231 72 137 1.7 2.6 0.00 0.00 0.00 20 1016.0
20260502011731 72 137 1.7 2.6 0.00 0.00 0.00 19 1017.0
20260502011231 72 137 1.7 2.6 0.00 0.00 0.00 19 1017.0
20260502010734 72 136 1.7 2.6 0.00 0.00 0.00 20 1017.0
20260502010231 72 138 1.7 3.5 0.00 0.00 0.00 20 1017.0